sat.trackr.live / text

‹ back to catalog

ONEWEB-0695

NORAD 61602 · 2024-188J

PAYLOAD ACTIVE UNKNOWN

§ Identity

Operator
Country
UK
Launch date
2024-10-20
Launch site
AFWTR
Launch vehicle
Mass (kg)
RCS (m²)

Purposes: comms

External: N2YO · Heavens-Above · Gunter

§ Orbital elements

Epoch: 2026-05-25T01:47:19.970016Z

Period
109.81 min
Inclination
87.8906°
Eccentricity
0.0001458
Mean motion
13.11414722 rev/d
Perigee alt
1,216.6 km
Apogee alt
1,218.8 km
Semi-major
7,595.8 km
B*
-1.3812e-3
RAAN
25.6753°
Arg perigee
97.1042°
Mean anomaly
263.0252°
Rev number
8,143

§ Raw data

ONEWEB-06951 61602U 24188J   26145.07453669 -.00000477  00000+0 -13812-2 0  99922 61602  87.8906  25.6753 0001458  97.1042 263.0252 13.11414722 81436

JSON: /api/v1/satellites/61602 · /tle

For live sub-satellite position, see the globe view (requires WebGL).

§ Visibility from observer

Set your observer location to see the next 7 days of passes ≥ 10°. The values pass through the URL so the page stays shareable.

No JS? Fill the form by hand. The geolocation button needs JavaScript.